Change the Weather History Date:

Wednesday, February 13, 2013

  Actual Average Record
Temperature  
Mean Temperature 46 °F -  
Max Temperature 51 °F - - ()
Min Temperature 38 °F - - ()
Degree Days  
Heating Degree Days 20    
Moisture  
Dew Point 39 °F    
Average Humidity 76    
Maximum Humidity 93    
Minimum Humidity 60    
Precipitation  
Precipitation 0.00 in - - ()
Sea Level Pressure  
Sea Level Pressure 30.38 in    
Wind  
Wind Speed 4 mph ()    
Max Wind Speed 8 mph    
Max Gust Speed -    
T = Trace of Precipitation, MM = Missing Value Source: Averaged Metar Reports

Daily Weather History Graph

Daily Weather History Graph

Search for Another Location

Airport or City:

Trip Planner

Search our weather history database for the weather conditions in past years. The results will help you decide how hot, cold, wet, or windy it might be!

Date:

Astronomy

Feb. 13, 2013 Rise Set
Actual Time 7:18 AM PST 5:24 PM PST
Civil Twilight 6:45 AM PST 5:57 PM PST
Nautical Twilight 6:08 AM PST 6:34 PM PST
Astronomical Twilight 5:31 AM PST 7:11 PM PST
Moon 8:25 AM PST (2/13) 10:01 PM PST (2/13)
Length of Visible Light 11h 11m
Length of Day
10h 05m
Waxing Crescent, 14% of the Moon is Illuminated
Feb 13
Waxing Crescent
Feb 17
First Quarter
Feb 25
Full
Mar 4
Last Quarter
Mar 11
New

Hourly Weather History & Observations

Time (PST) Temp. Windchill Dew Point Humidity Pressure Visibility Wind Dir Wind Speed Gust Speed Precip Events Conditions
12:00 AM 49.3 °F - 41.2 °F 74% 30.23 in - SW 8.1 mph - N/A   Unknown
1:00 AM 48.7 °F - 39.9 °F 72% 30.25 in - WSW 6.9 mph - N/A   Unknown
2:00 AM 48.0 °F - 39.7 °F 73% 30.26 in - West 5.8 mph - N/A   Unknown
3:00 AM 47.7 °F - 37.9 °F 69% 30.27 in - West 2.3 mph - N/A   Unknown
4:00 AM 47 °F - 37 °F 60% 30.30 in - West 5.8 mph - -  
4:00 AM 47.3 °F - 37.4 °F 68% 30.30 in - West 5.8 mph - N/A   Unknown
5:00 AM 46.8 °F - 37.0 °F 69% 30.31 in - West 4.6 mph - N/A   Unknown
6:00 AM 44.8 °F - 37.9 °F 77% 30.32 in - NW 2.3 mph - N/A   Unknown
7:00 AM 44.4 °F - 38.8 °F 81% 30.34 in - NW 1.2 mph - N/A   Unknown
8:00 AM 43.7 °F 42.1 °F 38.7 °F 82% 30.36 in - SSE 3.5 mph - N/A   Unknown
9:00 AM 44.1 °F 40.8 °F 38.7 °F 81% 30.38 in - ESE 5.8 mph - N/A   Unknown
10:00 AM 45 °F - 38 °F 70% 30.39 in - South 4.6 mph - -  
10:00 AM 45.1 °F 42.8 °F 38.5 °F 77% 30.39 in - South 4.6 mph - N/A   Unknown
11:00 AM 45.0 °F 43.5 °F 39.2 °F 80% 30.41 in - South 3.5 mph - N/A   Unknown
12:00 PM 46.2 °F 45.0 °F 39.6 °F 78% 30.41 in - ESE 3.5 mph - N/A   Unknown
1:00 PM 47.8 °F - 39.4 °F 72% 30.41 in - SW 4.6 mph - N/A   Unknown
2:00 PM 48.6 °F - 39.9 °F 72% 30.40 in - SSW 4.6 mph - N/A   Unknown
3:00 PM 48.9 °F - 39.4 °F 70% 30.40 in - SW 4.6 mph - N/A   Unknown
4:00 PM 49 °F - 40 °F 63% 30.40 in - SW 4.6 mph - -  
4:00 PM 49.1 °F - 40.3 °F 72% 30.40 in - SW 4.6 mph - N/A   Unknown
5:00 PM 47.8 °F - 39.0 °F 71% 30.42 in - West 3.5 mph - N/A   Unknown
6:00 PM 46.0 °F - 39.7 °F 79% 30.43 in - South 2.3 mph - N/A   Unknown
7:00 PM 44.4 °F - 38.7 °F 80% 30.43 in - NW 1.2 mph - N/A   Unknown
8:00 PM 42.6 °F - 38.3 °F 85% 30.45 in - ESE 2.3 mph - N/A   Unknown
9:00 PM 40.8 °F - 37.2 °F 87% 30.45 in - SE 1.2 mph - N/A   Unknown
10:00 PM 40 °F - 38 °F 91% 30.47 in - North 1.2 mph - -  
10:00 PM 40.5 °F - 38.3 °F 92% 30.47 in - North 1.2 mph - N/A   Unknown
11:00 PM 38.7 °F - 36.7 °F 93% 30.48 in - North 1.2 mph - N/A   Unknown